Precipitable_Water
0.87 1.01 1.29 1.37 1.40 1.42 1.48 1.51 1.54 1.58 1.57 1.66 1.64 1.70 1.70 1.68 1.67 1.69 1.69 1.73 1.76 1.83 1.89 1.91 1.93 1.93 1.87 1.87 1.74 1.71 1.70 1.63 1.47 1.25 1.11 1.08 1.17 1.65 1.88 1.86 1.80 1.62 1.41
0.85 0.99 1.22 1.29 1.29 1.33 1.35 1.33 1.44 1.45 1.51 1.53 1.59 1.63 1.64 1.66 1.66 1.65 1.65 1.67 1.71 1.74 1.80 1.87 1.90 1.90 1.90 1.84 1.78 1.81 1.76 1.71 1.55 1.36 1.15 1.01 0.95 1.14 1.50 1.74 1.89 1.69 1.42
0.77 0.95 1.10 1.21 1.21 1.17 1.20 1.21 1.22 1.29 1.31 1.45 1.44 1.50 1.55 1.55 1.60 1.62 1.64 1.65 1.68 1.70 1.73 1.78 1.84 1.90 1.90 1.85 1.80 1.81 1.84 1.75 1.62 1.45 1.25 1.20 1.12 0.97 0.79 1.24 1.67 1.70 1.40
0.70 0.84 0.95 1.03 1.12 1.08 1.09 1.08 1.08 1.12 1.19 1.28 1.29 1.32 1.42 1.47 1.49 1.53 1.56 1.60 1.64 1.69 1.70 1.74 1.80 1.85 1.93 1.93 1.86 1.80 1.78 1.77 1.69 1.50 1.27 1.31 1.29 1.22 0.99 0.77 1.01 1.32 1.30
0.59 0.67 0.78 0.87 0.94 0.95 0.95 0.91 0.93 0.98 0.98 1.05 1.13 1.20 1.21 1.30 1.36 1.39 1.47 1.51 1.55 1.58 1.59 1.65 1.73 1.77 1.81 1.88 1.90 1.86 1.77 1.68 1.63 1.58 1.32 1.37 1.18 1.25 1.29 0.90 0.92 1.03 1.17
0.48 0.53 0.65 0.74 0.79 0.83 0.82 0.81 0.82 0.83 0.79 0.83 0.88 0.88 0.98 1.11 1.15 1.16 1.22 1.37 1.44 1.50 1.53 1.59 1.62 1.63 1.63 1.66 1.69 1.72 1.70 1.60 1.53 1.64 1.44 1.44 1.27 1.13 1.46 1.39 1.06 1.06 1.12
0.44 0.46 0.52 0.62 0.63 0.66 0.70 0.71 0.70 0.69 0.70 0.65 0.62 0.64 0.68 0.77 0.92 1.00 0.99 1.04 1.18 1.33 1.42 1.48 1.52 1.57 1.58 1.61 1.64 1.66 1.68 1.66 1.65 1.56 1.59 1.52 1.41 1.22 1.05 1.52 1.59 1.34 1.20
0.45 0.46 0.47 0.49 0.51 0.53 0.57 0.55 0.53 0.52 0.52 0.51 0.49 0.48 0.48 0.48 0.54 0.68 0.81 0.87 0.91 1.02 1.16 1.26 1.39 1.47 1.53 1.60 1.63 1.63 1.66 1.67 1.69 1.65 1.62 1.62 1.51 1.37 1.19 0.96 1.52 1.72 1.39
0.45 0.45 0.45 0.44 0.44 0.43 0.44 0.45 0.45 0.44 0.43 0.40 0.39 0.39 0.38 0.38 0.40 0.42 0.45 0.57 0.69 0.76 0.85 1.00 1.09 1.20 1.32 1.43 1.52 1.57 1.59 1.62 1.64 1.64 1.61 1.65 1.64 1.47 1.34 1.06 1.01 1.65 1.72
0.42 0.41 0.39 0.38 0.36 0.34 0.33 0.36 0.35 0.35 0.34 0.33 0.31 0.31 0.29 0.29 0.30 0.33 0.35 0.38 0.43 0.47 0.55 0.68 0.78 0.90 1.00 1.13 1.27 1.35 1.48 1.61 1.59 1.59 1.61 1.64 1.69 1.64 1.44 1.31 0.96 1.12 1.76
0.35 0.35 0.35 0.34 0.33 0.31 0.28 0.28 0.26 0.26 0.24 0.23 0.21 0.21 0.19 0.20 0.21 0.23 0.26 0.31 0.32 0.34 0.36 0.41 0.45 0.53 0.65 0.78 0.98 1.13 1.24 1.33 1.41 1.51 1.57 1.65 1.68 1.68 1.61 1.43 1.16 1.05 1.28
0.32 0.32 0.32 0.31 0.28 0.25 0.23 0.22 0.20 0.20 0.19 0.17 0.17 0.17 0.17 0.17 0.18 0.17 0.17 0.19 0.19 0.23 0.24 0.28 0.30 0.32 0.34 0.45 0.62 0.83 0.95 1.04 1.18 1.31 1.44 1.53 1.59 1.68 1.74 1.61 1.38 1.09 1.11
0.32 0.31 0.30 0.27 0.24 0.22 0.21 0.20 0.18 0.18 0.18 0.18 0.18 0.18 0.17 0.18 0.18 0.17 0.17 0.17 0.17 0.18 0.17 0.17 0.17 0.18 0.22 0.26 0.32 0.48 0.66 0.84 0.93 1.04 1.20 1.33 1.44 1.55 1.65 1.75 1.61 1.33 1.11
0.31 0.29 0.28 0.25 0.23 0.23 0.22 0.19 0.18 0.18 0.18 0.18 0.19 0.19 0.19 0.18 0.18 0.17 0.17 0.17 0.17 0.17 0.17 0.17 0.17 0.16 0.16 0.17 0.20 0.25 0.33 0.48 0.65 0.83 0.97 1.10 1.23 1.39 1.50 1.60 1.75 1.54 1.34
0.30 0.28 0.27 0.26 0.25 0.22 0.20 0.19 0.19 0.19 0.19 0.20 0.20 0.20 0.19 0.18 0.17 0.18 0.18 0.18 0.19 0.19 0.18 0.17 0.17 0.17 0.16 0.17 0.17 0.17 0.19 0.25 0.37 0.51 0.66 0.87 1.04 1.14 1.32 1.46 1.54 1.75 1.51
0.30 0.28 0.27 0.26 0.25 0.23 0.22 0.21 0.21 0.21 0.20 0.20 0.20 0.20 0.20 0.19 0.19 0.18 0.18 0.18 0.18 0.19 0.19 0.19 0.18 0.17 0.17 0.17 0.17 0.16 0.16 0.16 0.19 0.28 0.44 0.57 0.75 0.99 1.12 1.28 1.42 1.54 1.70
0.30 0.29 0.28 0.27 0.27 0.25 0.24 0.23 0.22 0.22 0.21 0.21 0.21 0.21 0.21 0.21 0.21 0.20 0.20 0.20 0.20 0.20 0.19 0.18 0.18 0.18 0.17 0.16 0.16 0.16 0.16 0.15 0.16 0.17 0.22 0.33 0.50 0.67 0.90 1.11 1.27 1.39 1.55
0.31 0.31 0.31 0.30 0.28 0.26 0.25 0.24 0.23 0.23 0.22 0.21 0.21 0.21 0.21 0.21 0.21 0.20 0.20 0.20 0.21 0.21 0.21 0.20 0.19 0.18 0.17 0.16 0.15 0.15 0.15 0.16 0.16 0.16 0.16 0.17 0.24 0.40 0.58 0.81 1.08 1.26 1.37
0.34 0.33 0.32 0.30 0.28 0.26 0.26 0.25 0.24 0.23 0.22 0.22 0.21 0.21 0.20 0.20 0.20 0.19 0.19 0.19 0.20 0.19 0.19 0.19 0.18 0.17 0.17 0.17 0.16 0.15 0.14 0.14 0.16 0.16 0.15 0.15 0.16 0.20 0.33 0.52 0.71 1.00 1.23
0.34 0.32 0.30 0.29 0.27 0.25 0.24 0.24 0.23 0.21 0.21 0.21 0.21 0.20 0.20 0.19 0.19 0.18 0.18 0.17 0.18 0.17 0.17 0.17 0.16 0.16 0.16 0.16 0.15 0.15 0.17 0.16 0.12 0.12 0.14 0.15 0.16 0.16 0.17 0.29 0.52 0.68 0.98
0.33 0.31 0.29 0.27 0.26 0.25 0.24 0.22 0.21 0.20 0.21 0.20 0.20 0.20 0.20 0.20 0.20 0.20 0.19 0.18 0.17 0.16 0.15 0.15 0.15 0.15 0.15 0.16 0.14 0.14 0.13 0.15 0.17 0.19 0.20 0.22 0.23 0.27 0.28 0.27 0.33 0.55 0.70
0.32 0.31 0.29 0.28 0.27 0.25 0.24 0.23 0.23 0.22 0.21 0.21 0.21 0.21 0.20 0.20 0.20 0.19 0.19 0.18 0.18 0.17 0.16 0.16 0.15 0.14 0.14 0.16 0.13 0.12 0.10 0.10 0.16 0.16 0.16 0.18 0.22 0.26 0.34 0.41 0.41 0.49 0.65
0.33 0.31 0.31 0.29 0.27 0.26 0.26 0.24 0.23 0.22 0.21 0.20 0.19 0.19 0.19 0.19 0.19 0.19 0.19 0.19 0.18 0.18 0.17 0.17 0.17 0.16 0.14 0.16 0.16 0.14 0.11 0.09 0.12 0.13 0.13 0.16 0.19 0.21 0.27 0.36 0.42 0.42 0.51
0.33 0.34 0.32 0.30 0.28 0.27 0.25 0.24 0.22 0.20 0.19 0.19 0.18 0.19 0.18 0.18 0.18 0.18 0.18 0.18 0.19 0.19 0.18 0.18 0.19 0.18 0.18 0.15 0.16 0.17 0.17 0.16 0.12 0.10 0.14 0.13 0.13 0.16 0.26 0.29 0.33 0.41 0.42
0.35 0.33 0.32 0.30 0.28 0.26 0.25 0.24 0.22 0.20 0.19 0.18 0.18 0.17 0.17 0.17 0.18 0.18 0.18 0.18 0.18 0.19 0.19 0.19 0.18 0.18 0.18 0.17 0.16 0.16 0.16 0.15 0.15 0.13 0.10 0.12 0.14 0.15 0.17 0.18 0.22 0.30 0.37
0.34 0.34 0.32 0.29 0.26 0.26 0.25 0.23 0.21 0.19 0.18 0.17 0.17 0.16 0.17 0.17 0.17 0.17 0.18 0.19 0.19 0.19 0.19 0.19 0.19 0.19 0.18 0.18 0.18 0.17 0.16 0.15 0.14 0.14 0.13 0.13 0.13 0.12 0.15 0.17 0.17 0.18 0.24
Wind_Speed
9 7 6 7 8 7 7 6 5 5 4 5 4 3 4 5 4 4 5 5 5 4 5 6 7 7 6 8 7 6 5 4 4 3 2 2 4 5 6 6 5 6 7
7 7 5 4 5 5 6 6 6 6 5 5 4 3 2 3 3 6 5 5 6 6 6 6 7 9 8 8 8 7 7 6 5 4 4 4 5 7 7 7 6 7 8
8 6 5 5 5 5 5 6 6 6 6 5 5 4 4 4 5 5 6 7 7 8 8 8 9 8 9 9 9 7 8 9 8 7 6 6 6 7 9 10 8 8 8
6 6 5 5 5 6 6 6 7 7 7 6 7 7 6 6 6 6 6 7 7 9 8 9 9 10 10 10 10 10 8 10 10 9 8 8 9 9 8 10 11 10 10
6 6 6 7 6 6 6 7 7 7 8 8 8 8 8 9 8 8 8 8 8 9 9 9 10 10 11 10 11 12 12 10 11 12 10 10 9 10 9 10 11 12 11
7 7 7 8 7 7 8 8 8 8 9 9 10 10 11 10 10 11 11 11 11 12 12 13 13 13 13 14 14 14 14 13 12 12 12 12 11 10 11 11 12 13 13
8 8 8 8 9 9 9 9 10 10 11 11 11 12 12 13 14 14 13 13 14 14 15 15 15 16 16 16 16 16 16 15 15 14 14 14 13 13 13 13 13 14 14
10 10 10 10 10 11 11 11 12 12 13 13 14 14 14 15 15 15 16 17 16 17 18 18 18 18 18 19 18 18 17 17 17 17 16 16 15 16 16 16 16 16 16
11 11 12 12 12 13 13 13 14 14 15 15 16 17 17 17 18 18 18 19 19 20 20 20 21 21 21 21 21 21 20 20 19 19 19 18 18 18 18 18 19 19 19
12 13 13 13 14 14 15 16 16 16 17 17 18 18 18 19 20 20 21 21 22 23 23 23 24 24 24 24 24 23 23 23 21 21 20 22 20 20 20 20 21 22 22
15 15 15 15 16 16 17 17 18 18 18 18 19 19 20 20 21 22 22 23 24 24 25 26 26 27 27 27 27 27 26 25 25 24 23 21 23 25 23 24 23 24 24
17 17 17 17 17 18 18 18 18 18 19 20 20 21 21 21 22 22 23 24 25 26 27 27 28 29 29 30 30 30 29 30 29 29 28 27 25 24 26 26 26 26 26
18 19 19 19 19 19 19 20 20 21 21 22 22 23 23 23 24 24 25 25 26 27 28 29 30 30 31 32 32 33 33 32 32 32 32 32 30 29 27 27 29 28 28
20 20 20 20 20 20 21 21 22 23 23 24 24 25 25 25 26 26 27 28 28 29 29 30 31 32 33 34 35 36 36 35 35 35 35 35 35 34 32 30 30 31 31
21 21 21 21 21 21 22 23 24 24 25 26 26 27 27 28 28 29 30 30 31 31 32 32 33 33 34 35 36 37 38 39 39 39 38 38 39 38 38 36 34 33 34
22 22 22 22 22 23 24 25 25 26 26 27 27 28 29 30 31 32 32 33 33 33 34 35 35 35 36 37 38 39 40 41 42 42 42 42 41 41 41 41 39 37 36
23 23 23 24 24 25 25 26 26 27 27 28 29 30 31 32 33 34 35 35 36 36 37 37 37 38 38 39 40 41 42 43 44 45 45 45 45 45 44 44 44 43 41
25 25 25 25 25 26 27 27 28 28 29 30 31 32 33 34 35 35 36 37 38 38 39 39 40 40 41 42 43 43 44 45 46 47 48 48 48 48 48 47 47 47 45
26 26 26 26 27 27 28 28 28 29 30 31 33 34 35 36 36 37 38 39 40 41 41 42 42 43 44 45 46 46 47 48 49 49 50 51 51 51 51 51 51 50 50
27 27 27 27 27 27 28 28 29 31 32 34 35 36 37 37 38 39 40 41 42 42 43 44 45 45 46 47 48 49 49 50 51 51 51 52 53 53 54 54 54 53 53
29 28 28 28 28 28 29 30 31 33 34 35 36 37 38 38 40 40 41 42 43 43 44 45 46 47 47 48 50 51 52 51 50 50 50 51 52 53 55 55 55 55 55
29 29 28 29 29 29 30 31 33 34 35 36 37 37 38 40 41 42 43 44 44 45 45 46 47 49 50 51 52 53 51 52 49 52 53 53 52 53 53 53 55 55 55
30 29 29 29 30 31 32 33 34 35 36 36 36 38 39 40 42 43 44 46 46 47 47 48 49 50 51 51 52 53 52 53 57 54 55 55 56 56 56 56 55 56 57
30 29 29 30 30 31 33 34 35 36 36 37 38 39 40 41 42 44 45 45 46 47 48 49 50 51 53 54 54 54 57 59 57 59 57 58 59 59 59 60 59 59 58
29 29 30 30 31 32 33 35 36 37 38 38 39 40 40 42 43 43 44 45 46 47 48 50 52 53 54 55 55 55 56 57 59 60 62 58 60 60 60 61 61 62 60
28 29 30 30 31 33 35 36 37 38 38 39 40 41 41 42 43 43 44 45 46 48 49 50 51 52 53 54 54 53 52 52 52 54 58 59 59 59 61 62 61 62 63
Wind_Direction
249 256 270 264 257 270 288 280 298 314 327 357 0 348 263 280 286 277 266 262 264 270 257 252 243 245 257 250 256 260 268 280 296 298 279 218 197 188 181 178 176 183 178
237 248 260 266 268 275 280 287 284 296 305 308 336 328 324 349 318 266 267 266 264 271 277 268 259 252 255 261 254 264 260 267 284 277 261 243 223 217 213 210 210 193 193
236 250 253 252 265 280 282 301 288 292 306 292 304 317 306 306 313 301 270 267 272 270 270 274 270 268 258 257 248 268 266 262 272 268 259 247 237 226 226 221 213 210 206
234 247 261 264 271 278 281 290 297 291 300 299 292 289 291 294 293 300 289 283 277 270 272 273 275 272 274 261 259 258 277 263 266 261 258 251 249 236 232 224 221 217 212
247 252 264 266 271 282 283 293 299 300 300 305 296 283 287 281 284 284 282 283 280 273 275 275 272 275 272 275 267 264 269 273 266 256 260 253 248 238 233 226 221 219 216
252 255 265 265 269 276 283 287 291 296 297 296 297 295 294 287 284 283 283 281 277 273 273 273 273 273 272 272 272 271 269 268 267 259 256 256 246 239 236 231 225 222 219
255 259 265 268 269 275 281 284 287 288 289 292 293 291 289 288 288 280 281 279 278 276 276 275 272 272 272 272 272 272 270 269 264 260 255 254 251 245 241 237 232 226 223
258 262 267 272 274 276 282 284 286 287 288 289 290 290 288 286 285 283 282 283 278 277 276 274 274 272 271 269 269 271 271 267 264 261 256 254 253 249 244 242 237 230 228
262 266 270 274 277 278 282 286 287 288 289 289 290 289 286 285 284 282 280 280 279 279 278 273 274 273 271 269 269 268 268 266 265 261 258 255 255 251 246 245 240 236 231
263 267 271 275 279 281 283 286 287 287 288 288 290 290 288 286 285 283 280 280 278 277 275 275 275 274 273 270 270 268 266 264 263 262 260 255 254 252 250 247 243 239 234
266 268 271 275 278 280 282 284 286 287 289 289 290 291 288 287 287 286 283 281 280 277 276 275 274 272 271 270 269 268 265 263 262 260 259 259 258 253 252 250 246 241 239
263 268 272 275 278 280 281 283 285 287 289 290 290 290 289 289 288 287 285 284 282 280 277 276 274 272 271 269 268 266 265 264 262 260 258 258 260 258 252 250 247 244 242
263 268 271 274 277 280 281 283 285 286 287 289 289 290 290 289 289 288 286 285 283 281 280 278 276 273 272 269 268 266 264 263 262 261 258 258 258 257 256 252 248 245 241
264 267 270 273 275 279 280 283 284 286 287 289 289 289 290 289 289 288 287 286 285 283 281 279 277 275 273 271 268 266 264 263 262 260 259 258 256 256 255 254 251 246 242
264 266 269 272 275 278 280 283 285 286 287 288 288 289 290 290 288 288 287 286 284 283 282 280 278 276 274 272 270 268 265 264 262 260 259 257 256 255 254 253 252 249 243
262 265 268 271 275 278 281 284 284 285 286 287 287 288 288 289 289 288 287 285 284 283 283 281 279 277 275 273 270 268 266 264 263 260 259 257 256 255 253 252 251 250 247
261 264 268 271 275 278 281 283 284 284 286 287 288 289 289 289 289 288 287 286 285 285 284 281 280 277 275 274 271 270 268 265 263 261 260 258 256 254 253 251 250 249 248
262 265 269 272 275 278 281 282 283 284 286 287 288 289 289 290 289 289 288 287 287 286 284 282 280 278 277 275 273 271 269 267 265 263 261 258 256 254 253 251 249 248 247
264 266 268 272 275 278 281 282 283 285 287 288 289 289 289 290 289 289 288 287 287 286 284 283 281 280 278 276 274 272 270 268 266 264 261 259 257 254 252 250 249 248 246
263 266 268 271 275 278 280 282 284 286 288 289 290 290 290 290 290 290 289 288 287 286 284 283 282 280 279 277 276 273 271 269 267 264 262 260 257 255 253 250 249 247 246
262 264 267 272 275 278 281 282 285 288 289 290 290 290 290 290 291 290 289 289 288 286 285 284 283 282 280 280 278 275 273 269 266 264 262 260 257 255 253 250 248 246 245
260 263 267 272 276 278 281 284 287 288 290 290 290 291 292 292 292 291 291 290 289 287 286 285 284 282 281 281 278 277 272 270 266 266 262 260 257 256 253 251 248 246 244
260 263 268 272 275 279 283 286 288 289 290 290 291 291 292 292 292 292 291 290 289 288 286 285 285 283 282 280 279 276 274 269 271 264 263 260 259 255 253 251 248 247 245
261 264 268 273 276 280 284 287 288 289 290 291 292 292 292 293 293 293 292 290 289 288 287 286 285 284 283 281 279 276 274 273 270 267 261 261 258 255 252 250 249 246 245
261 264 270 273 277 281 284 287 288 289 290 291 292 292 293 293 293 293 291 290 288 287 287 286 286 285 283 282 280 278 275 273 269 266 264 260 258 254 252 250 248 246 244
262 267 271 274 279 282 285 287 289 290 291 291 292 293 293 294 294 293 292 291 290 290 289 288 287 286 284 282 279 277 274 272 269 266 263 260 256 254 252 249 247 245 243